www.pogodaiklimat.ru

Погода и климат >> Архив погоды >> Бахрейн >> Bahrain


АРХИВ ПОГОДЫ в Bahrain

Время (UTC), дата Ветер
(напр.,м/с)
 
Видим.   Явления Облачность Т
(С)
Тd
(С)
f
(%)
Тe
(С)
Тes
(С)
Комфортность P
(гПа)
Po
(гПа)
Тmin
(С)
Tmax
(С)
R
(мм)
R24
(мм)
S
(см)
09 11.08 С 4 16 км ясно +39.1 +18.8 31 +43 +59 опасность
перегрева
1000.7 1001.0
12 11.08 СЗ 6 16 км ясно +37.2 +26.3 54 +53 +58 опасность
перегрева
999.5 1000.0
15 11.08 СЗ 5 12 км 3/0
[Ci fib]
+35.2 +26.8 62 +53 +53 опасность
перегрева
999.5 1000.0
18 11.08 СЗ 4 12 км ясно +34.6 +25.6 60 +50 +50 опасность
перегрева
1000.3 1000.0 +40.0
21 11.08 З 3 16 км ясно +34.3 +25.9 62 +50 +50 опасность
перегрева
999.5 1000.0
00 12.08 З 4 16 км ясно +35.2 +19.1 39 +40 +40 очень
душно
998.6 999.0
03 12.08 СЗ 6 20 км ясно +34.9 +21.9 47 +43 +44 опасность
перегрева
999.2 999.0
06 12.08 СЗ 7 16 км ясно +36.2 +26.9 59 +54 +57 опасность
перегрева
999.8 1000.0 +34.1
09 12.08 СЗ 9 14 км ясно +38.8 +23.5 42 +49 +51 опасность
перегрева
998.5 999.0
12 12.08 СЗ 10 12 км 4/0
[Ci fib]
+38.1 +22.7 41 +47 +47 опасность
перегрева
997.0 997.0
15 12.08 СЗ 7 14 км 1/0
[Ci fib]
+36.6 +23.1 46 +47 +47 опасность
перегрева
996.0 996.0
18 12.08 З 5 14 км ясно +36.5 +20.7 40 +43 +43 опасность
перегрева
996.1 996.0 +39.4
21 12.08 З 4 14 км ясно +35.2 +24.1 53 +47 +47 опасность
перегрева
995.0 995.0
00 13.08 СЗ 8 12 км ясно +34.5 +23.2 52 +45 +45 опасность
перегрева
994.5 995.0
03 13.08 СЗ 9 14 км ясно +35.2 +24.1 53 +47 +47 опасность
перегрева
995.2 995.0
06 13.08 СЗ 11 14 км ясно +37.1 +24.2 48 +49 +49 опасность
перегрева
995.8 996.0 +34.2
09 13.08 СЗ 11 14 км ясно +37.7 +23.3 44 +48 +48 опасность
перегрева
995.1 995.0
12 13.08 СЗ 12 8000 м пыльный позёмок ясно +37.5 +22.8 43 +47 +47 опасность
перегрева
994.0 994.0
15 13.08 СЗ 8 7000 м пыльный позёмок ясно +36.5 +21.5 42 +44 +44 опасность
перегрева
993.5 994.0
18 13.08 СЗ 6 7000 м пыль ясно +34.9 +24.8 56 +48 +48 опасность
перегрева
994.6 995.0 +38.4
21 13.08 СЗ 10 <100 м пыль ясно +35.6 +23.2 49 +46 +46 опасность
перегрева
994.5 995.0
00 14.08 СЗ 10 2000 м пыль ясно +34.2 +24.7 58 +47 +47 опасность
перегрева
994.6 995.0
03 14.08 СЗ 8 6000 м пыль ясно +34.4 +23.7 54 +46 +46 опасность
перегрева
995.8 996.0
06 14.08 СЗ 8 10 км пыль ясно +36.5 +24.0 49 +48 +51 опасность
перегрева
997.6 998.0 +34.0
09 14.08 СЗ 9 12 км ясно +38.3 +22.3 40 +47 +49 опасность
перегрева
997.5 998.0
15 14.08 С 6 14 км 3/0
[Ci fib]
+35.3 +21.9 46 +44 +44 опасность
перегрева
996.3 996.0
18 14.08 СЗ 4 14 км ясно +33.9 +23.8 56 +45 +45 опасность
перегрева
997.5 998.0 +38.5
21 14.08 З 4 14 км ясно +34.1 +22.5 51 +43 +43 опасность
перегрева
997.5 998.0
00 15.08 З 5 14 км ясно +34.3 +19.1 41 +39 +39 очень
душно
997.3 997.0
03 15.08 СЗ 5 14 км ясно +33.7 +24.8 60 +47 +47 опасность
перегрева
998.8 999.0
06 15.08 СЗ 7 16 км ясно +37.3 +22.6 43 +46 +50 опасность
перегрева
999.3 999.0 +33.2
09 15.08 СЗ 8 14 км ясно +38.3 +21.9 39 +46 +50 опасность
перегрева
998.8 999.0
12 15.08 СЗ 8 12 км ясно +38.5 +19.8 34 +44 +45 опасность
перегрева
998.1 998.0
15 15.08 С 5 12 км ясно +35.9 +20.9 42 +43 +43 опасность
перегрева
998.1 998.0
18 15.08 СЗ 3 12 км ясно +34.1 +24.0 56 +46 +46 опасность
перегрева
999.6 1000.0 +39.2
21 15.08 З 3 14 км ясно +33.5 +23.7 57 +45 +45 опасность
перегрева
999.1 999.0
00 16.08 З 3 14 км ясно +33.8 +21.2 48 +41 +41 опасность
перегрева
998.8 999.0
03 16.08 З 3 16 км 3/0
[Ci fib]
+34.1 +22.8 52 +44 +45 опасность
перегрева
999.4 999.0
06 16.08 СЗ 6 16 км 3/0
[Ci fib]
+37.9 +14.9 26 +39 +44 очень
душно
1000.7 1001.0 +32.2
09 16.08 СЗ 8 16 км ясно +39.2 +16.7 27 +42 +45 опасность
перегрева
999.9 1000.0
12 16.08 С 6 16 км ясно +39.7 +15.9 25 +41 +45 опасность
перегрева
998.8 999.0
15 16.08 С 4 16 км ясно +36.9 +18.8 35 +41 +41 опасность
перегрева
998.5 999.0
18 16.08 СЗ 2 14 км ясно +35.0 +20.9 44 +42 +42 опасность
перегрева
999.8 1000.0 +40.4
21 16.08 З 3 14 км ясно +34.1 +24.3 57 +47 +47 опасность
перегрева
999.1 999.0
00 17.08 З 3 14 км ясно +34.2 +20.1 44 +41 +41 опасность
перегрева
998.5 999.0
03 17.08 З 3 16 км ясно +33.3 +19.7 45 +39 +40 очень
душно
999.3 999.0
06 17.08 СЗ 7 16 км ясно +37.6 +15.9 28 +39 +43 очень
душно
1000.4 1000.0 +33.2
09 17.08 СЗ 8 18 км ясно +39.5 +16.9 27 +42 +46 опасность
перегрева
998.9 999.0
12 17.08 СЗ 6 16 км ясно +38.7 +21.8 38 +46 +51 опасность
перегрева
997.5 998.0
15 17.08 СЗ 6 14 км ясно +36.1 +25.0 53 +50 +50 опасность
перегрева
996.8 997.0
18 17.08 СЗ 4 12 км ясно +34.0 +26.2 64 +50 +50 опасность
перегрева
997.5 998.0 +40.0
21 17.08 З 3 12 км ясно +34.0 +25.1 60 +48 +48 опасность
перегрева
996.5 997.0
00 18.08 З 4 12 км ясно +35.2 +19.1 39 +40 +40 очень
душно
996.2 996.0
03 18.08 СЗ 6 12 км 3/0
[Ci fib]
+33.0 +23.6 58 +44 +44 опасность
перегрева
997.2 997.0

 

Местоположение метеостанции Bahrain (Бахрейн): широта 26.27 долгота 50.65 высота над уровнем моря 2 м.

В архиве по умолчанию представлена погода в Bahrain за последнюю неделю. Архивные данные за месяц целиком и за предыдущие месяцы, начиная с января 2011 года, Вы можете получить, выбрав интересующий диапазон дат из раскрывающегося списка и нажав кнопку "Ввод!".


*Определитесь, кто Вы:
робот инопланетянин человек

Внимание! Время в таблицах - всемирное. Для получения местного времени необходимо прибавить поправку, которая в Bahrain равна 4 ч.

Смотрите также архив погоды в соседних городах и на ближайших метеорологических станциях:

Погода в Dhahran (Саудовская Аравия) (48 км)
Погода в King Fahd Int Airport (Саудовская Аравия) (85 км)
Погода в Dukhan (Катар) (97 км)
Погода в Doha (Катар) (146 км)
Погода в Hamad Int Airport (Катар) (147 км)
Погода в Al Ahsa (Саудовская Аравия) (159 км)
Погода в Abu Samra (Катар) (170 км)
Погода в Bandar Deyr (Иран) (215 км)
Погода в Bushehr (Иран) (299 км)
Погода в Bushehr Airport (Иран) (302 км)

Пояснения к столбцам:

Ветер - указаны скорость ветра в м/с - средняя за 10 мин, порывы в срок и между сроками (в фигурных скобках) и направление, откуда дует ветер: С - северный, СВ - северо-восточный, В - восточный, ЮВ - юго-восточный, Ю - южный, ЮЗ - юго-западный, З - западный, СЗ - северо-западный.
Видимость - горизонтальная дальность видимости в метрах или километрах. При видимости от 1 до 10 км при отсутствии осадков обычно наблюдается дымка, при ухудшении видимости до 1 км и менее - туман. В сухую погоду видимость может ухудшаться дымом, пылью или мглою.
Явления - указаны атмосферные явления, наблюдавшиеся в срок или в последний час перед сроком; фигурными скобками обозначены явления, наблюдавшиеся между сроками (за 1-3 часа до срока); квадратными скобками обозначены град или гололедные отложения с указанием их диаметра в мм.
Облачность - указаны через наклонную черту общая и нижняя облачность в баллах и высота нижней границы облаков в метрах; квадратными скобками обозначены формы облаков: Ci - перистые, Cs - перисто-слоистые, Cc - перисто-кучевые, Ac - высококучевые, As - высокослоистые, Sc - слоисто-кучевые, Ns - слоисто-дождевые, Cu - кучевые, Cb - кучево-дождевые. Подробнее классификацию облаков см. в Атласе облаков (PDF).
T - Температура воздуха - температура, измеренная на высоте 2 м над землей.
Td - Температура точки росы - температура, при понижении до которой содержащийся в воздухе водяной пар достигнет насыщения.
f - Относительная влажность воздуха - влажноcть воздуха, измеренная на высоте 2 м над землей.
Te - Эффективная температура - температура, которую ощущает одетый по сезону человек в тени. Характеристика душности погоды. При расчете учитывается влияние влажности воздуха и скорости ветра на теплоощущения человека.
Tes - Эффективная температура на солнце - температура, которую ощущает человек, с поправкой на солнечный нагрев. Характеристика знойности погоды. Зависит от высоты солнца над горизонтом, облачности и скорости ветра. Ночью, в пасмурную погоду, а также при ветре 12 м/с и более поправка равна нулю.
P - Атмосферное давление - приведенное к уровню моря атмосферное давление.
Po - Атмосферное давление - измеренное на уровне метеостанции атмосферное давление.
Tmin - Минимальная температура - минимум температуры воздуха на высоте 2 м над землей.
Tmax - Максимальная температура - максимум температуры воздуха на высоте 2 м над землей.
R - Количество осадков - Количество выпавших осадков за период времени, мм. При наведении курсора мыши на число - период времени, за который выпало указанное количество осадков.
R24 - Количество осадков - Количество выпавших осадков за 24 часа, мм.
S - Снежный покров - Высота снежного покрова, см. При наведении курсора мыши на число - состояние снежного покрова и степень покрытия местности в баллах.